This is the latest recevied weather packets stored in our database for station/object G1OCN-WX. If no packets are shown the sender has not sent any weather packets the latest 10 day(s).
| Time | Temp. | Humidity | Pressure | Rain* | Wind** | Luminosity | Snow |
|---|---|---|---|---|---|---|---|
| 1787381515 | 14.44° C | 73% | 1022.5 hPa | 0 mm | - | - | - |
| 1787380585 | 14.44° C | 70% | 1022.3 hPa | 0 mm | - | - | - |
| 1787379655 | 13.89° C | 73% | 1021.9 hPa | 0 mm | - | - | - |
| 1787378755 | 13.89° C | 76% | 1021.6 hPa | 0 mm | - | - | - |
| 1787377825 | 13.33° C | 78% | 1021.4 hPa | 0 mm | - | - | - |
| 1787376925 | 13.33° C | 77% | 1021.3 hPa | 0 mm | - | - | - |
| 1787375995 | 13.33° C | 76% | 1021.2 hPa | 0 mm | - | - | - |
| 1787375095 | 13.33° C | 75% | 1021 hPa | 0 mm | - | - | - |
| 1787374195 | 13.89° C | 75% | 1020.9 hPa | 0 mm | - | - | - |
| 1787373295 | 13.89° C | 74% | 1020.7 hPa | 0 mm | - | - | - |
| 1787372395 | 13.89° C | 73% | 1020.6 hPa | 0 mm | - | - | - |
| 1787371495 | 13.89° C | 73% | 1020.6 hPa | 0 mm | - | - | - |
| 1787370595 | 13.89° C | 72% | 1020.5 hPa | 0 mm | - | - | - |
| 1787369695 | 13.89° C | 73% | 1020.3 hPa | 0 mm | - | - | - |
| 1787368795 | 13.89° C | 73% | 1020.2 hPa | 0 mm | - | - | - |
| 1787367865 | 13.89° C | 73% | 1020.2 hPa | 0 mm | - | - | - |
| 1787366935 | 13.89° C | 72% | 1020.1 hPa | 0 mm | - | - | - |
| 1787366034 | 14.44° C | 71% | 1020 hPa | 0 mm | - | - | - |
| 1787365104 | 14.44° C | 70% | 1019.9 hPa | 0 mm | - | - | - |
| 1787364204 | 14.44° C | 69% | 1019.8 hPa | 0 mm | - | - | - |
| 1787363304 | 14.44° C | 69% | 1019.7 hPa | 0 mm | - | - | - |
| 1787362404 | 14.44° C | 70% | 1019.6 hPa | 0 mm | - | - | - |
| 1787361504 | 14.44° C | 69% | 1019.6 hPa | 0 mm | - | - | - |
| 1787360574 | 15° C | 68% | 1019.4 hPa | 0 mm | - | - | - |
| 1787359674 | 15° C | 69% | 1019.3 hPa | 0 mm | - | - | - |
* Rain latest hour (hover to see other rain measurements)
** Current wind speed in m/s (hover to see current wind gust speed)